{"data":{"norad_id":57711,"intl_designator":"2023-129P","name":"STARLINK-30318","alt_names":[],"object_type":"PAYLOAD","status":"ACTIVE","operator":null,"country":"US","launch_date":"2023-08-27","launch_site_code":"AFETR","launch_vehicle":null,"mission":null,"orbit_class":"UNKNOWN","rcs_meters":null,"size_class":null,"mass_kg":null,"dimensions":null,"purposes":["comms"],"wikipedia_slug":null,"has_3d_model":false,"image_url":null,"decayed_at":null,"tle_current":{"epoch":"2026-09-20T22:02:14.152704Z","epoch_age_seconds":95018,"freshness":"FRESH","line1":"1 57711U 23129P   26263.91821936 -.00000204  00000+0  21315-5 0  9999","line2":"2 57711  43.0063  95.0561 0001775 258.0982 101.9670 15.27576432170407","mean_motion":15.27576432,"eccentricity":0.0001775,"inclination_deg":43.0063,"raan_deg":95.0561,"arg_perigee_deg":258.0982,"mean_anomaly_deg":101.967,"bstar":2.1315e-6,"rev_number":17040,"period_min":94.266968894948,"perigee_km":481.84191750759,"apogee_km":484.27764236447,"semimajor_km":6861.196779936,"source":"CELESTRAK","updated_at":"2026-09-21T09:00:33.676038Z"}}}